Volver al catálogo

STARLINK-35845

ActivoComunicacionesVLEO
NORAD 66366·PAYLOAD·🇺🇸 United States

Lanzado Nov 6, 2025 desde Vandenberg Space Force Base

Loading…

Próximos Pases (próximas 24 horas)

TLE

ActualizadoSource: CelesTrak SupGP

Época: Sep 15, 2026, 02:36 UTC

1 66366C 25254U   26258.10881944 -.00027802  00000+0 -89472-3 0  2584
2 66366  53.1571  71.4501 0001297  80.4212 259.8493 15.31691408    14

Sigue STARLINK-35845 en tiempo real con AllMySat

Download on the App Store